When you browse on this site, cookies collect data to enhance your experience and personalize the content and advertising you see.
Visit our Privacy Policy to learn more. By continuing to use the site, you agree to this use of cookies and data.
  • In Romania
  • List of Countries
  • For 7 days
  • Water Temperature
  • Satellite Maps
  • Weather Map
  • Weather Widgets
  • user-avatar
    Login

    Hourly Weather Rusanovo

    Today, 24 March, Sunday

    Time Temperature Precipitation Wind Pressure Humidity
    00:00 +1°C° 0.9 mm 3 mps 747 mmHg 75%
    01:00 +1°C° 0.9 mm 3 mps 746 mmHg 76%
    02:00 +1°C° 0 mm 3 mps 745 mmHg 77%
    03:00 +1°C° 0.2 mm 3 mps 745 mmHg 79%
    04:00 +2°C° 0.2 mm 3 mps 744 mmHg 81%
    05:00 +2°C° 0.2 mm 3 mps 744 mmHg 83%
    06:00 +2°C° 0 mm 3 mps 744 mmHg 84%
    07:00 +1°C° 0 mm 4 mps 743 mmHg 84%
    08:00 +3°C° 0 mm 4 mps 743 mmHg 84%
    09:00 +3°C° 0 mm 5 mps 743 mmHg 77%
    10:00 +3°C° 0 mm 5 mps 743 mmHg 69%
    11:00 +5°C° 0 mm 5 mps 743 mmHg 61%
    12:00 +5°C° 0.1 mm 6 mps 743 mmHg 57%
    13:00 +5°C° 0.1 mm 6 mps 743 mmHg 54%
    14:00 +5°C° 0.1 mm 6 mps 743 mmHg 50%
    15:00 +6°C° 0.1 mm 5 mps 743 mmHg 52%
    16:00 +5°C° 0.1 mm 4 mps 743 mmHg 55%
    17:00 +4°C° 0.1 mm 3 mps 743 mmHg 57%
    18:00 +3°C° 0 mm 3 mps 743 mmHg 60%
    19:00 +2°C° 0 mm 3 mps 743 mmHg 63%
    20:00 +1°C° 0 mm 3 mps 743 mmHg 66%
    21:00 +1°C° 0 mm 2 mps 743 mmHg 68%
    22:00 +1°C° 0 mm 2 mps 743 mmHg 71%
    23:00 -1°C° 0 mm 2 mps 743 mmHg 73%

    Tomorrow, 25 March, Monday

    Time Temperature Precipitation Wind Pressure Humidity
    00:00 -1°C° 0 mm 2 mps 743 mmHg 75%
    01:00 -2°C° 0 mm 2 mps 743 mmHg 76%
    02:00 -2°C° 0 mm 2 mps 743 mmHg 78%
    03:00 -2°C° 0 mm 2 mps 743 mmHg 78%
    04:00 -2°C° 0 mm 2 mps 743 mmHg 78%
    05:00 -3°C° 0 mm 2 mps 742 mmHg 78%
    06:00 -2°C° 0 mm 2 mps 742 mmHg 73%
    07:00 +1°C° 0 mm 2 mps 742 mmHg 69%
    08:00 +1°C° 0 mm 3 mps 742 mmHg 65%
    09:00 +2°C° 0 mm 3 mps 742 mmHg 59%
    10:00 +4°C° 0 mm 3 mps 741 mmHg 53%
    11:00 +5°C° 0 mm 4 mps 741 mmHg 47%
    12:00 +5°C° 0 mm 4 mps 741 mmHg 47%
    13:00 +7°C° 0 mm 3 mps 741 mmHg 47%
    14:00 +7°C° 0 mm 3 mps 740 mmHg 46%
    15:00 +5°C° 0 mm 3 mps 740 mmHg 50%
    16:00 +6°C° 0 mm 2 mps 740 mmHg 55%
    17:00 +5°C° 0 mm 2 mps 739 mmHg 59%
    18:00 +4°C° 0 mm 2 mps 739 mmHg 63%
    19:00 +3°C° 0 mm 2 mps 739 mmHg 68%
    20:00 +1°C° 0 mm 2 mps 739 mmHg 72%
    21:00 +1°C° 0 mm 2 mps 739 mmHg 74%
    22:00 +1°C° 0 mm 2 mps 739 mmHg 76%
    23:00 +1°C° 0 mm 2 mps 739 mmHg 78%

    Day after tomorrow, 26 March, Tuesday

    Time Temperature Precipitation Wind Pressure Humidity
    00:00 -1°C° 0 mm 2 mps 739 mmHg 81%
    01:00 -1°C° 0 mm 2 mps 738 mmHg 84%
    02:00 -1°C° 0 mm 2 mps 738 mmHg 87%
    03:00 -1°C° 0.2 mm 2 mps 738 mmHg 88%
    04:00 -1°C° 0.2 mm 2 mps 738 mmHg 88%
    05:00 -1°C° 0.2 mm 2 mps 738 mmHg 89%
    06:00 0°C° 0.4 mm 3 mps 738 mmHg 87%
    07:00 -1°C° 0.4 mm 4 mps 738 mmHg 85%
    08:00 -1°C° 0.4 mm 4 mps 738 mmHg 83%
    09:00 -1°C° 0.1 mm 4 mps 738 mmHg 78%
    10:00 -1°C° 0.1 mm 4 mps 738 mmHg 73%
    11:00 -1°C° 0.1 mm 4 mps 738 mmHg 67%
    12:00 0°C° 0.2 mm 4 mps 738 mmHg 64%
    13:00 0°C° 0.2 mm 4 mps 738 mmHg 61%
    14:00 +1°C° 0.2 mm 3 mps 738 mmHg 58%
    15:00 +1°C° 0.2 mm 3 mps 738 mmHg 60%
    16:00 +2°C° 0.2 mm 2 mps 738 mmHg 62%
    17:00 +2°C° 0.2 mm 1 mps 738 mmHg 64%
    18:00 +1°C° 0 mm 1 mps 739 mmHg 68%
    19:00 0°C° 0 mm 1 mps 739 mmHg 73%
    20:00 -1°C° 0 mm 1 mps 739 mmHg 78%
    21:00 -2°C° 0 mm 1 mps 740 mmHg 79%
    22:00 -2°C° 0 mm 1 mps 740 mmHg 81%
    23:00 -2°C° 0 mm 1 mps 740 mmHg 82%

    27 March, Wednesday

    Time Temperature Precipitation Wind Pressure Humidity
    00:00 -4°C° 0 mm 2 mps 741 mmHg 82%
    01:00 -4°C° 0 mm 2 mps 742 mmHg 81%
    02:00 -5°C° 0 mm 3 mps 742 mmHg 81%
    03:00 -5°C° 0 mm 3 mps 743 mmHg 82%
    04:00 -6°C° 0 mm 3 mps 743 mmHg 82%
    05:00 -6°C° 0 mm 3 mps 743 mmHg 83%
    06:00 -5°C° 0 mm 4 mps 744 mmHg 78%
    07:00 -5°C° 0 mm 5 mps 745 mmHg 74%
    08:00 -4°C° 0 mm 5 mps 745 mmHg 70%
    09:00 -2°C° 0 mm 5 mps 746 mmHg 66%
    10:00 -2°C° 0 mm 5 mps 746 mmHg 62%
    11:00 -1°C° 0 mm 5 mps 747 mmHg 59%
    12:00 -1°C° 0 mm 5 mps 747 mmHg 59%
    13:00 -1°C° 0 mm 5 mps 748 mmHg 59%
    14:00 -1°C° 0 mm 5 mps 748 mmHg 59%
    15:00 -1°C° 0 mm 5 mps 749 mmHg 60%
    16:00 -1°C° 0 mm 5 mps 749 mmHg 62%
    17:00 -2°C° 0 mm 4 mps 750 mmHg 63%
    18:00 -2°C° 0 mm 4 mps 750 mmHg 65%
    19:00 -1°C° 0 mm 3 mps 751 mmHg 67%
    20:00 -1°C° 0 mm 3 mps 752 mmHg 70%
    21:00 -2°C° 0 mm 2 mps 752 mmHg 73%
    22:00 -3°C° 0 mm 2 mps 752 mmHg 76%
    23:00 -4°C° 0 mm 2 mps 753 mmHg 78%

    28 March, Thursday

    Time Temperature Precipitation Wind Pressure Humidity
    00:00 -4°C° 0 mm 2 mps 753 mmHg 79%
    01:00 -4°C° 0 mm 2 mps 754 mmHg 79%
    02:00 -5°C° 0 mm 2 mps 754 mmHg 79%
    03:00 -5°C° 0 mm 2 mps 754 mmHg 80%
    04:00 -5°C° 0 mm 2 mps 755 mmHg 80%
    05:00 -5°C° 0 mm 2 mps 755 mmHg 80%
    06:00 -5°C° 0 mm 2 mps 756 mmHg 75%
    07:00 -4°C° 0 mm 2 mps 756 mmHg 69%
    08:00 -3°C° 0 mm 2 mps 756 mmHg 64%
    09:00 -1°C° 0 mm 2 mps 757 mmHg 55%
    10:00 +1°C° 0 mm 2 mps 757 mmHg 47%
    11:00 +3°C° 0 mm 2 mps 757 mmHg 38%
    12:00 +3°C° 0 mm 2 mps 756 mmHg 39%
    13:00 +4°C° 0 mm 2 mps 756 mmHg 39%
    14:00 +3°C° 0 mm 3 mps 756 mmHg 40%
    15:00 +3°C° 0 mm 3 mps 756 mmHg 46%
    16:00 +4°C° 0 mm 2 mps 755 mmHg 52%
    17:00 +3°C° 0 mm 2 mps 755 mmHg 58%
    18:00 +2°C° 0 mm 2 mps 755 mmHg 62%
    19:00 +1°C° 0 mm 2 mps 755 mmHg 66%
    20:00 -1°C° 0 mm 3 mps 754 mmHg 71%
    21:00 -1°C° 0 mm 3 mps 754 mmHg 72%
    22:00 -1°C° 0 mm 3 mps 754 mmHg 73%
    23:00 -1°C° 0 mm 3 mps 753 mmHg 74%

    29 March, Friday

    Time Temperature Precipitation Wind Pressure Humidity
    00:00 -1°C° 0 mm 3 mps 753 mmHg 78%
    01:00 -1°C° 0 mm 4 mps 753 mmHg 83%
    02:00 -1°C° 0 mm 4 mps 752 mmHg 87%
    03:00 -1°C° 0 mm 4 mps 752 mmHg 88%
    04:00 -1°C° 0 mm 4 mps 752 mmHg 90%
    05:00 -1°C° 0 mm 4 mps 751 mmHg 92%
    06:00 0°C° 0 mm 4 mps 751 mmHg 90%
    07:00 0°C° 0 mm 4 mps 751 mmHg 88%
    08:00 +1°C° 0 mm 4 mps 752 mmHg 86%
    09:00 +1°C° 0 mm 4 mps 752 mmHg 82%
    10:00 +3°C° 0 mm 4 mps 752 mmHg 77%
    11:00 +4°C° 0 mm 4 mps 752 mmHg 73%
    12:00 +5°C° 0 mm 4 mps 752 mmHg 68%
    13:00 +7°C° 0 mm 3 mps 751 mmHg 64%
    14:00 +8°C° 0 mm 3 mps 751 mmHg 59%
    15:00 +7°C° 0 mm 2 mps 751 mmHg 62%
    16:00 +7°C° 0 mm 2 mps 750 mmHg 66%
    17:00 +8°C° 0 mm 1 mps 750 mmHg 70%
    18:00 +6°C° 0 mm 1 mps 750 mmHg 76%
    19:00 +4°C° 0 mm 2 mps 750 mmHg 83%
    20:00 +3°C° 0 mm 2 mps 749 mmHg 89%
    21:00 +3°C° 0 mm 2 mps 749 mmHg 91%
    22:00 +3°C° 0 mm 2 mps 749 mmHg 92%
    23:00 +3°C° 0 mm 2 mps 749 mmHg 94%
    Show more